User: anonymous   Login
Location: Newark
(39.6889°N, 28.1522°E)
Time: 04:37:01
(UTC+00:00)
Language:

NANOSAT C BR1 - Orbit

View from above orbital plane
View from above orbital plane
View from above satellite
View from above satellite

Ground track
Ground track

The orbit data is extracted from the following two-line orbital elements,

1 40024U 14033Q   19342.37425572  .00000178  00000-0  24449-4 0  9998
2 40024  97.9189 264.5438 0011547 198.8126 161.2666 14.89950245297159
Epoch (UTC): 08 December 2019 08:58:55
Eccentricity: 0.0011547
inclination: 97.9189°
perigee height: 590 km
apogee height: 606 km
right ascension of ascending node: 264.5438°
argument of perigee: 198.8126°
revolutions per day: 14.89950245
mean anomaly at epoch: 161.2666°
orbit number at epoch: 29715

The dashed part of the orbit path shows where the satellite is in the earth's shadow,  

DLR